Regional Weather Roundup
Issued by NWS Bismarck, ND

Home | Current Version | Previous Version | Text Only | Print | Product List | Glossary On
Versions: 1 2 3 4 5 6 7 8 9 10 11 12 13 14 15 16 17 18 19 20 21 22 23 24 25 26 27 28 29 30 31 32 33 34 35 36 37 38 39 40 41 42 43 44 45 46 47 48 49 50
000
ASUS43 KBIS 281710
RWRBIS

NWR BROADCAST TEXT
NATIONAL WEATHER SERVICE BISMARCK ND
1200 PM CDT SUN MAY 28 2017

NOTE: "FAIR" INDICATES FEW OR NO CLOUDS BELOW 12,000 FEET WITH NO
SIGNIFICANT WEATHER AND/OR OBSTRUCTIONS TO VISIBILITY.


CITY           SKY/WX    TMP DP  RH WIND       PRES   REMARKS
WILLISTON      FAIR      72  36  26 NW16G26   29.96F
MINOT          FAIR      67  41  38 NW26G35   29.86F
MINOT AFB      FAIR      67  44  43 NW26G36   29.84F
BISMARCK       FAIR      70  42  36 NW17G26   29.92F
DICKINSON      FAIR      70  31  23 W20G30    29.95F
GARRISON         N/A     68  41  37 NW24G32   29.89F
HETTINGER ARPT FAIR      70  34  26 NW15G26   30.01F
JAMESTOWN      FAIR      64  43  46 NW21G30   29.83S
HAZEN          PTSUNNY   66  39  37 NW17G30   29.94S
LINTON         PTSUNNY   64  50  59 NW18      29.94F
MANDAN         FAIR      66  43  42 NW18G24   29.93S
STANLEY        PTSUNNY   64  41  42 NW23G33   29.94S
TIOGA          FAIR      66  39  37 NW23G29   29.95R
WATFORD CITY   FAIR      66  36  32 NW16G25   29.95S
$$

CITY           SKY/WX    TMP DP  RH WIND       PRES   REMARKS
GRAND FORKS    CLOUDY    63  49  60 NW20G25   29.75F
GRAND FORKS AF PTSUNNY   63  48  58 NW15G24   29.76F
DEVILS LAKE    PTSUNNY   64  44  48 NW21G30   29.79F
FARGO          PTSUNNY   66  48  52 NW22G31   29.76F
CAVALIER       PTSUNNY   61  50  67 W15       29.72F
GRAFTON        FAIR      61  52  72 NW15G23   29.75F
GWINNER        MOSUNNY   66  45  45 MISG      29.82S
LANGDON        DRIZZLE   55  52  88 NW16G29   29.75F
ROLLA          PTSUNNY   63  41  45 NW28G48   29.77F
$$

CITY           SKY/WX    TMP DP  RH WIND       PRES   REMARKS
ABERDEEN       FAIR      71  37  28 NW26G36   29.87S
MOBRIDGE       FAIR      72  38  29 NW22G30   29.92S
BUFFALO          N/A     70  37  29 NW21G28   29.99F
RAPID CITY     FAIR      71  29  21 N18       30.10S
GLASGOW        FAIR      72  33  24 N25G35    30.07R
SIDNEY         FAIR      72  39  30 NW26      29.98R
WOLF POINT     FAIR      75  34  22 N23G33    30.03R
GLENDIVE       PTSUNNY   73  38  27 NW31G37   30.01F
MILES CITY     FAIR      76  39  26 NW21G26   30.06F
BAKER          FAIR      71  35  26 NW20G30   30.04F
$$

CITY           SKY/WX    TMP DP  RH WIND       PRES   REMARKS
BILLINGS       FAIR      71  44  37 W10       30.20S
GREAT FALLS    FAIR      66  42  41 VRB3      30.24F
REGINA         PTSUNNY   63  41  45 NW28G33   30.01S
ESTEVAN        MOSUNNY   64  41  42 NW32G40   29.93R
$$





USA.gov is the U.S. government's official web portal to all federal, state and local government web resources and services.